Tracking 19245 objects as of 21-Aug-2018
HD Live streaming from Space Station
objects crossing your sky now

FENGYUN 1C DEB

Track FENGYUN 1C DEB now!
10-day predictions


NORAD ID: 30053
Int'l Code: 1999-025PE
Perigee: 693.9 km
Apogee: 1,263.5 km
Inclination: 98.6 °
Period: 104.5 minutes
Semi major axis: 7349 km
RCS: 0.0436 m2 (small)
Launch date: May 10, 1999
Source: People's Republic of China (PRC)
Launch site: Taiyaun Space Center, China (TSC)

Note: This is SATELLITE DEBRIS
aabbcc
Your satellite tracking list
Your tracking list is empty




NASA's NSSDC Master Catalog

Two Line Element Set (TLE):
1 30053U 99025PE  18232.47297514 +.00000549 +00000-0 +33500-3 0  9993
2 30053 098.5924 227.6594 0387526 043.4453 104.3327 13.77834258580820
Source of the keplerian elements: AFSPC